Location: Complexul Astronomic Baia Mare
(47.6577°N, 23.5639°E)
Time: 05:48:04
(UTC+03:00)

ISS - Pass Details

Date: 11 March 2017
Orbit: 399 x 409 km, 51.6° (Epoch: 30 March)

Event Time Altitude Azimuth Distance (km) Brightness Sun altitude
Exits shadow 04:41:35 56° 33° (NNE) 493 -3.3 -21.6°
Drops below altitude 10° 04:44:25 10° 64° (ENE) 1,481 0.2 -21.2°
Sets 04:46:31 0° 67° (ENE) 2,345 1.6 -20.9°
